| time (UTC) | temp F | wind direction | speed MPH | gust MPH | rain 1hr in | rain 24hr in | rain mn in | humidity % | barometer mb |
| 20260904034608 | 62 | 317 | 3.0 | 8.0 | 0.00 | 0.00 | 0.00 | 44 | 1005.9 |
| 20260904033102 | 62 | 336 | 3.0 | 6.0 | 0.00 | 0.00 | 0.00 | 45 | 1005.9 |
| 20260904031555 | 62 | 347 | 2.0 | 5.0 | 0.00 | 0.00 | 0.00 | 45 | 1005.8 |
| 20260904030055 | 63 | 350 | 4.0 | 8.0 | 0.00 | 0.00 | 0.00 | 44 | 1005.7 |
| 20260904024553 | 62 | 5 | 5.0 | 8.0 | 0.00 | 0.00 | 0.00 | 45 | 1005.5 |
| 20260904023053 | 63 | 350 | 4.0 | 7.0 | 0.00 | 0.00 | 0.00 | 44 | 1005.4 |
| 20260904021549 | 64 | 341 | 3.0 | 7.0 | 0.00 | 0.00 | 0.00 | 42 | 1005.3 |
| 20260904020051 | 66 | 323 | 2.0 | 7.0 | 0.00 | 0.00 | 0.00 | 40 | 1005.1 |
| 20260904014622 | 68 | 360 | 3.0 | 8.0 | 0.00 | 0.00 | 0.00 | 39 | 1005.0 |
| 20260904013049 | 70 | 338 | 2.0 | 4.0 | 0.00 | 0.00 | 0.00 | 37 | 1005.0 |
| 20260904011545 | 72 | 321 | 2.0 | 6.0 | 0.00 | 0.00 | 0.00 | 35 | 1004.8 |
| 20260904010050 | 74 | 309 | 2.0 | 8.0 | 0.00 | 0.00 | 0.00 | 34 | 1004.8 |
| 20260904004543 | 74 | 298 | 3.0 | 7.0 | 0.00 | 0.00 | 0.00 | 33 | 1004.8 |
| 20260904003046 | 75 | 314 | 2.0 | 8.0 | 0.00 | 0.00 | 0.00 | 33 | 1004.6 |
| 20260904001546 | 75 | 289 | 4.0 | 12.0 | 0.00 | 0.00 | 0.00 | 32 | 1004.4 |
| 20260904000040 | 76 | 282 | 4.0 | 11.0 | 0.00 | 0.00 | 0.00 | 31 | 1004.5 |
| 20260903234507 | 77 | 298 | 7.0 | 15.0 | 0.00 | 0.00 | 0.00 | 29 | 1004.3 |
| 20260903233005 | 77 | 267 | 9.0 | 16.0 | 0.00 | 0.00 | 0.00 | 26 | 1004.0 |
| 20260903231506 | 78 | 257 | 5.0 | 15.0 | 0.00 | 0.00 | 0.00 | 27 | 1004.0 |
| 20260903230010 | 76 | 240 | 5.0 | 15.0 | 0.00 | 0.00 | 0.00 | 28 | 1004.0 |
| 20260903224504 | 76 | 288 | 6.0 | 13.0 | 0.00 | 0.00 | 0.00 | 29 | 1003.9 |
| 20260903223003 | 79 | 279 | 5.0 | 19.0 | 0.00 | 0.00 | 0.00 | 26 | 1003.8 |
| 20260903221504 | 77 | 249 | 7.0 | 19.0 | 0.00 | 0.00 | 0.00 | 28 | 1003.6 |
| 20260903220003 | 79 | 291 | 6.0 | 20.0 | 0.00 | 0.00 | 0.00 | 26 | 1003.6 |
| 20260903214501 | 78 | 241 | 8.0 | 21.0 | 0.00 | 0.00 | 0.00 | 26 | 1003.6 |
| 20260903213001 | 78 | 237 | 10.0 | 23.0 | 0.00 | 0.00 | 0.00 | 27 | 1003.6 |
| 20260903211501 | 78 | 267 | 6.0 | 15.0 | 0.00 | 0.00 | 0.00 | 27 | 1003.5 |
| 20260903204558 | 76 | 247 | 6.0 | 14.0 | 0.00 | 0.00 | 0.00 | 29 | 1003.6 |
| 20260903203106 | 76 | 242 | 7.0 | 16.0 | 0.00 | 0.00 | 0.00 | 29 | 1003.7 |
| 20260903201556 | 77 | 225 | 14.0 | 21.0 | 0.00 | 0.00 | 0.00 | 28 | 1003.6 |
| 20260903200055 | 77 | 194 | 12.0 | 18.0 | 0.00 | 0.00 | 0.00 | 28 | 1003.7 |
| 20260903194556 | 76 | 234 | 10.0 | 18.0 | 0.00 | 0.00 | 0.00 | 29 | 1003.7 |
| 20260903193052 | 76 | 259 | 7.0 | 19.0 | 0.00 | 0.00 | 0.00 | 30 | 1003.8 |
| 20260903191551 | 75 | 208 | 7.0 | 20.0 | 0.00 | 0.00 | 0.00 | 30 | 1003.8 |
| 20260903190051 | 76 | 288 | 6.0 | 18.0 | 0.00 | 0.00 | 0.00 | 30 | 1003.7 |
| 20260903184549 | 75 | 215 | 12.0 | 21.0 | 0.00 | 0.00 | 0.00 | 30 | 1003.7 |
| 20260903183047 | 73 | 224 | 10.0 | 19.0 | 0.00 | 0.00 | 0.00 | 35 | 1003.7 |
| 20260903181542 | 72 | 252 | 6.0 | 13.0 | 0.00 | 0.00 | 0.00 | 39 | 1003.8 |
| 20260903180047 | 71 | 200 | 10.0 | 15.0 | 0.00 | 0.00 | 0.00 | 40 | 1004.0 |
| 20260903174537 | 69 | 229 | 7.0 | 13.0 | 0.00 | 0.00 | 0.00 | 44 | 1004.1 |
| 20260903173033 | 68 | 240 | 6.0 | 13.0 | 0.00 | 0.00 | 0.00 | 46 | 1004.3 |
| 20260903171537 | 66 | 212 | 7.0 | 14.0 | 0.00 | 0.00 | 0.00 | 47 | 1004.2 |
| 20260903170036 | 65 | 248 | 8.0 | 15.0 | 0.00 | 0.00 | 0.00 | 48 | 1004.1 |
| 20260903164524 | 63 | 237 | 10.0 | 16.0 | 0.00 | 0.00 | 0.00 | 51 | 1004.0 |
| 20260903163024 | 61 | 194 | 8.0 | 15.0 | 0.00 | 0.00 | 0.00 | 56 | 1004.0 |
| 20260903161515 | 60 | 245 | 6.0 | 14.0 | 0.00 | 0.00 | 0.00 | 59 | 1004.2 |
| 20260903160013 | 59 | 226 | 6.0 | 9.0 | 0.00 | 0.00 | 0.00 | 61 | 1004.2 |
| 20260903154510 | 58 | 211 | 6.0 | 12.0 | 0.00 | 0.00 | 0.00 | 62 | 1004.2 |
| 20260903153006 | 57 | 241 | 6.0 | 10.0 | 0.00 | 0.00 | 0.00 | 63 | 1004.2 |
| 20260903151506 | 57 | 229 | 5.0 | 10.0 | 0.00 | 0.00 | 0.00 | 64 | 1004.1 |
| 20260903150003 | 55 | 239 | 7.0 | 13.0 | 0.00 | 0.00 | 0.00 | 65 | 1004.0 |
| 20260903144610 | 54 | 207 | 7.0 | 12.0 | 0.00 | 0.00 | 0.00 | 66 | 1004.1 |
| 20260903143056 | 53 | 209 | 5.0 | 11.0 | 0.00 | 0.00 | 0.00 | 67 | 1003.9 |
| 20260903141551 | 52 | 237 | 5.0 | 10.0 | 0.00 | 0.00 | 0.00 | 68 | 1003.7 |
| 20260903140051 | 51 | 230 | 5.0 | 9.0 | 0.00 | 0.00 | 0.00 | 68 | 1003.6 |
| 20260903134602 | 51 | 236 | 5.0 | 9.0 | 0.00 | 0.00 | 0.00 | 68 | 1003.6 |
| 20260903133048 | 51 | 234 | 5.0 | 8.0 | 0.00 | 0.00 | 0.00 | 67 | 1003.4 |
| 20260903131545 | 52 | 203 | 6.0 | 16.0 | 0.00 | 0.00 | 0.00 | 65 | 1003.2 |
| 20260903130043 | 51 | 200 | 9.0 | 16.0 | 0.00 | 0.00 | 0.00 | 67 | 1002.6 |
| 20260903124551 | 52 | 207 | 8.0 | 15.0 | 0.00 | 0.00 | 0.00 | 65 | 1002.6 |
| 20260903123040 | 51 | 221 | 8.0 | 14.0 | 0.00 | 0.00 | 0.00 | 67 | 1002.6 |
| 20260903121540 | 51 | 217 | 6.0 | 10.0 | 0.00 | 0.00 | 0.00 | 68 | 1002.6 |
| 20260903120043 | 50 | 217 | 6.0 | 11.0 | 0.00 | 0.00 | 0.00 | 69 | 1002.6 |
| 20260903114540 | 50 | 194 | 8.0 | 14.0 | 0.00 | 0.00 | 0.00 | 69 | 1002.7 |
| 20260903113040 | 49 | 193 | 7.0 | 15.0 | 0.00 | 0.00 | 0.00 | 71 | 1002.7 |
| 20260903111534 | 47 | 192 | 6.0 | 10.0 | 0.00 | 0.00 | 0.00 | 75 | 1002.6 |
| 20260903110036 | 47 | 202 | 4.0 | 7.0 | 0.00 | 0.00 | 0.00 | 74 | 1002.4 |
| 20260903104533 | 47 | 202 | 6.0 | 9.0 | 0.00 | 0.00 | 0.00 | 75 | 1002.6 |
| 20260903103030 | 46 | 190 | 4.0 | 7.0 | 0.00 | 0.00 | 0.00 | 76 | 1002.6 |
| 20260903101527 | 46 | 270 | 1.0 | 4.0 | 0.00 | 0.00 | 0.00 | 76 | 1002.4 |
| 20260903100030 | 47 | 232 | 2.0 | 5.0 | 0.00 | 0.00 | 0.00 | 75 | 1002.5 |
| 20260903094524 | 47 | 261 | 2.0 | 5.0 | 0.00 | 0.00 | 0.00 | 74 | 1002.4 |
| 20260903093023 | 48 | 237 | 4.0 | 6.0 | 0.00 | 0.00 | 0.00 | 75 | 1002.5 |
| 20260903091521 | 47 | 225 | 4.0 | 6.0 | 0.00 | 0.00 | 0.00 | 75 | 1002.5 |
| 20260903090019 | 48 | 259 | 0.0 | 2.0 | 0.00 | 0.00 | 0.00 | 74 | 1002.3 |
| 20260903084535 | 49 | 262 | 0.0 | 2.0 | 0.00 | 0.00 | 0.00 | 72 | 1002.3 |
| 20260903083014 | 49 | 246 | 2.0 | 6.0 | 0.00 | 0.00 | 0.00 | 73 | 1002.0 |
| 20260903081513 | 48 | 235 | 3.0 | 7.0 | 0.00 | 0.00 | 0.00 | 74 | 1002.1 |
| 20260903080010 | 49 | 248 | 3.0 | 6.0 | 0.00 | 0.00 | 0.00 | 74 | 1002.0 |
| 20260903074509 | 49 | 223 | 4.0 | 7.0 | 0.00 | 0.00 | 0.00 | 74 | 1002.1 |
| 20260903073009 | 50 | 234 | 3.0 | 7.0 | 0.00 | 0.00 | 0.00 | 73 | 1002.0 |
| 20260903071506 | 50 | 213 | 6.0 | 9.0 | 0.00 | 0.00 | 0.00 | 72 | 1002.0 |
| 20260903070004 | 50 | 274 | 3.0 | 9.0 | 0.00 | 0.00 | 0.00 | 74 | 1002.0 |
| 20260903064501 | 49 | 306 | 3.0 | 7.0 | 0.00 | 0.00 | 0.00 | 73 | 1001.9 |
| 20260903063110 | 51 | 228 | 2.0 | 6.0 | 0.00 | 0.00 | 0.00 | 70 | 1001.6 |
| 20260903061558 | 52 | 219 | 5.0 | 11.0 | 0.00 | 0.00 | 0.00 | 69 | 1001.3 |
| 20260903060050 | 52 | 248 | 7.0 | 11.0 | 0.00 | 0.00 | 0.00 | 71 | 1001.5 |
| 20260903054549 | 52 | 224 | 6.0 | 12.0 | 0.00 | 0.00 | 0.00 | 73 | 1001.7 |
| 20260903053107 | 51 | 219 | 6.0 | 10.0 | 0.00 | 0.00 | 0.00 | 74 | 1002.1 |
| 20260903051546 | 51 | 210 | 5.0 | 7.0 | 0.00 | 0.00 | 0.00 | 74 | 1002.2 |
| 20260903050057 | 52 | 223 | 3.0 | 7.0 | 0.00 | 0.00 | 0.00 | 74 | 1002.1 |
| 20260903044556 | 52 | 218 | 5.0 | 9.0 | 0.00 | 0.00 | 0.00 | 75 | 1002.2 |
| 20260903043049 | 53 | 242 | 6.0 | 9.0 | 0.00 | 0.00 | 0.00 | 74 | 1002.1 |
| 20260903041549 | 53 | 246 | 6.0 | 10.0 | 0.00 | 0.00 | 0.00 | 74 | 1001.9 |
| 20260903040040 | 53 | 226 | 4.0 | 6.0 | 0.00 | 0.00 | 0.00 | 73 | 1002.0 |